Location: Litvinovka
(48.6667°N, 34.3500°E)
Time: 02:33:41
(UTC+00:00)

Okean 2 Rocket - Pass Details

Date: 18 September 2020
Orbit: 616 x 642 km, 82.5° (Epoch: 22 October)

Event Time Altitude Azimuth Distance (km) Brightness Sun altitude
Rises 16:26:13 0° 156° (SSE) 2,934 6.2 -7.0°
Reaches altitude 10° 16:28:45 10° 143° (SE) 2,028 5.3 -7.4°
Maximum altitude 16:32:27 26° 88° (E) 1,274 4.1 -8.0°
Drops below altitude 10° 16:36:09 10° 33° (NNE) 2,030 5.5 -8.6°
Sets 16:38:40 0° 20° (NNE) 2,939 6.5 -9.0°
